Weather History for Aurora, IL

Change the Weather History Date:

Tuesday, October 2, 2012

  Actual Average Record
Temperature  
Mean Temperature 59 °F 56 °F  
Max Temperature 73 °F 68 °F 83 °F (2005)
Min Temperature 44 °F 43 °F 19 °F (2003)
Degree Days  
Heating Degree Days 6 10  
Month to date heating degree days 18 20  
Since 1 July heating degree days 217 173  
Cooling Degree Days 0 1  
Month to date cooling degree days 0 2  
Year to date cooling degree days 1004 649  
Growing Degree Days 8 (Base 50)    
Moisture  
Dew Point 46 °F    
Average Humidity 63    
Maximum Humidity 93    
Minimum Humidity 33    
Precipitation  
Precipitation 0.00 in 0.12 in 1.40 in (2006)
Month to date precipitation 0.00 0.25  
Year to date precipitation 17.78 28.89  
Sea Level Pressure  
Sea Level Pressure 29.87 in    
Wind  
Wind Speed 8 mph (NNE)    
Max Wind Speed 18 mph    
Max Gust Speed 23 mph    
Visibility 10 miles    
Events      
T = Trace of Precipitation, MM = Missing Value Source: NWS Daily Summary

Daily Weather History Graph

Daily Weather History Graph

Search for Another Location

Airport:

Trip Planner

Search our weather history database for the weather conditions in past years. The results will help you decide how hot, cold, wet, or windy it might be!

Date:

Astronomy

Oct. 02, 2012 Rise Set
Actual Time 6:52 AM CDT 6:33 PM CDT
Civil Twilight 6:24 AM CDT 7:00 PM CDT
Nautical Twilight 5:52 AM CDT 7:32 PM CDT
Astronomical Twilight 5:19 AM CDT 8:05 PM CDT
Moon 7:42 PM CDT (10/2) 9:22 AM CDT (10/2)
Length of Visible Light 12h 36m
Length of Day
11h 40m
Waning Gibbous, 94% of the Moon is Illuminated
Oct 2
Waning Gibbous
Oct 8
Last Quarter
Oct 15
New
Oct 21
First Quarter
Oct 29
Full

Hourly Weather History & Observations

Time (CDT) Temp. Dew Point Humidity Pressure Visibility Wind Dir Wind Speed Gust Speed Precip Events Conditions
12:52 AM 52.0 °F 46.9 °F 83% 29.83 in 10.0 mi NE 3.5 mph - N/A   Clear
1:52 AM 52.0 °F 46.9 °F 83% 29.83 in 10.0 mi Calm Calm - N/A   Clear
2:52 AM 51.1 °F 46.9 °F 86% 29.83 in 10.0 mi NNE 4.6 mph - N/A   Clear
3:52 AM 48.0 °F 45.0 °F 89% 29.83 in 10.0 mi NNW 5.8 mph - N/A   Clear
4:52 AM 50.0 °F 46.9 °F 89% 29.84 in 10.0 mi North 6.9 mph - N/A   Clear
5:52 AM 48.9 °F 46.9 °F 93% 29.86 in 10.0 mi North 4.6 mph - N/A   Clear
6:52 AM 46.9 °F 45.0 °F 93% 29.87 in 9.0 mi North 3.5 mph - N/A   Clear
8:52 AM 57.0 °F 52.0 °F 83% 29.89 in 10.0 mi North 8.1 mph - N/A   Clear
9:52 AM 63.0 °F 53.1 °F 70% 29.88 in 10.0 mi NNE 12.7 mph - N/A   Clear
10:52 AM 66.0 °F 46.9 °F 50% 29.87 in 10.0 mi NE 13.8 mph 21.9 mph N/A   Clear
11:52 AM 68.0 °F 46.0 °F 45% 29.88 in 10.0 mi NE 13.8 mph 21.9 mph N/A   Clear
12:52 PM 71.1 °F 44.1 °F 38% 29.87 in 10.0 mi ENE 11.5 mph - N/A   Clear
2:52 PM 71.1 °F 41.0 °F 34% 29.84 in 10.0 mi ENE 15.0 mph 21.9 mph N/A   Clear
3:52 PM 70.0 °F 39.9 °F 33% 29.84 in 10.0 mi NE 13.8 mph 20.7 mph N/A   Clear
4:52 PM 68.0 °F 39.9 °F 36% 29.85 in 10.0 mi East 12.7 mph - N/A   Clear
5:52 PM 66.0 °F 39.0 °F 37% 29.86 in 10.0 mi ENE 9.2 mph - N/A   Clear
6:52 PM 59.0 °F 42.1 °F 53% 29.88 in 10.0 mi NNE 6.9 mph - N/A   Clear
7:52 PM 55.9 °F 43.0 °F 62% 29.89 in 10.0 mi NNE 6.9 mph - N/A   Partly Cloudy
9:52 PM 57.9 °F 46.0 °F 65% 29.91 in 10.0 mi NNE 6.9 mph - N/A   Overcast
10:52 PM 59.0 °F 51.1 °F 75% 29.92 in 10.0 mi NE 6.9 mph - N/A   Overcast
11:52 PM 59.0 °F 53.1 °F 81% 29.91 in 10.0 mi North 6.9 mph - N/A   Overcast